User: anonymous
Location: Mount Graham
(32.7016°N, 109.8912°W)
Time: 14:35:05
(UTC-07:00)
Language:

Cosmos 1340 - Orbit

View from above orbital plane
View from above orbital plane
View from above satellite
View from above satellite

Ground track
Ground track

The orbit data is extracted from the following two-line orbital elements,

1 13067U 82013A   14260.07367469  .00006101  00000-0  34077-3 0  4702
2 13067 081.1883 221.3855 0001592 335.3296 150.6385 15.13380564775544
Epoch (UTC): 17 September 2014 01:46:05
Eccentricity: 0.0001592
inclination: 81.1883°
perigee height: 525 km
apogee height: 527 km
right ascension of ascending node: 221.3855°
argument of perigee: 335.3296°
revolutions per day: 15.13380564
mean anomaly at epoch: 150.6385°
orbit number at epoch: 77554

The dashed part of the orbit path shows where the satellite is in the earth's shadow,  

DLR